Weather History for HELX - November, 2013

Change the Weather History Date:

Friday, November 22, 2013

  Actual Average Record
Temperature  
Mean Temperature 70 °F -  
Max Temperature 83 °F 74 °F 93 °F (1999)
Min Temperature 57 °F 48 °F 50 °F (2000)
Cooling Degree Days 5    
Growing Degree Days 20 (Base 50)    
Moisture  
Dew Point 53 °F    
Average Humidity 54    
Maximum Humidity 64    
Minimum Humidity 33    
Precipitation  
Precipitation 0.00 in 0.00 in - ()
Sea Level Pressure  
Sea Level Pressure 29.93 in    
Wind  
Wind Speed 1 mph ()    
Max Wind Speed 5 mph    
Max Gust Speed -    
Visibility 4.6 miles    
Events      
Averages and records for this station are not official NWS values.
T = Trace of Precipitation, MM = Missing Value Source: Averaged Metar Reports

Daily Weather History Graph

Daily Weather History Graph

Search for Another Location

Airport or City:

Trip Planner

Search our weather history database for the weather conditions in past years. The results will help you decide how hot, cold, wet, or windy it might be!

Date:

Astronomy

Nov. 22, 2013 Rise Set
Actual Time 6:11 AM EET 4:58 PM EET
Civil Twilight 5:47 AM EET 5:23 PM EET
Nautical Twilight 5:19 AM EET 5:51 PM EET
Astronomical Twilight 4:51 AM EET 6:18 PM EET
Moon 9:05 PM EET (11/22) 9:47 AM EET (11/22)
Length of Visible Light 11h 35m
Length of Day
10h 46m
Waning Gibbous, 80% of the Moon is Illuminated
Nov 22
Waning Gibbous
Nov 25
Last Quarter
Dec 3
New
Dec 9
First Quarter
Dec 17
Full

Hourly Weather History & Observations

Time (EET) Temp. Heat Index Dew Point Humidity Pressure Visibility Wind Dir Wind Speed Gust Speed Precip Events Conditions
12:00 AM 66.2 °F - 51.8 °F 60% 29.92 in - NNE 2.3 mph - N/A   Clear
1:00 AM 64.4 °F - 50.0 °F 59% 29.92 in - Calm Calm - N/A   Clear
2:00 AM 62.6 °F - 50.0 °F 63% 29.92 in - Calm Calm - N/A   Clear
3:00 AM 60.8 °F - 48.2 °F 63% 29.92 in - Calm Calm - N/A   Clear
4:00 AM 60.8 °F - 44.6 °F 55% 29.92 in - Calm Calm - N/A   Clear
5:00 AM 59.0 °F - 44.6 °F 59% 29.92 in - Calm Calm - N/A   Clear
6:00 AM 59.0 °F - 44.6 °F 59% 29.95 in - SSE 1.2 mph - N/A   Clear
7:00 AM 57.2 °F - 44.6 °F 63% 29.95 in - Calm Calm - N/A   Clear
8:00 AM 62.6 °F - 44.6 °F 52% 29.98 in - Calm Calm - N/A   Clear
9:00 AM 66.2 °F - 51.8 °F 60% 29.98 in 3.7 mi NNE 3.5 mph - N/A   Unknown
10:00 AM 73.4 °F - 53.6 °F 50% 29.98 in 3.7 mi North 2.3 mph - N/A   Unknown
11:00 AM 77.0 °F - 55.4 °F 47% 29.95 in 5.0 mi Calm Calm - N/A   Unknown
2:00 PM 82 °F - 58 °F 33% 29.88 in 6 mi North 2.3 mph - -   Mostly Cloudy
2:00 PM 82.4 °F 82.0 °F 57.2 °F 42% 29.89 in - North 2.3 mph - N/A   Clear
3:00 PM 82.4 °F 82.0 °F 57.2 °F 42% 29.89 in - North 2.3 mph - N/A   Clear
4:00 PM 82.4 °F 82.0 °F 57.2 °F 42% 29.89 in - North 2.3 mph - N/A   Clear
5:00 PM 77 °F - 58 °F 41% 29.90 in 5 mi Calm Calm - -   Haze
5:00 PM 77.0 °F - 57.2 °F 50% 29.89 in 5.6 mi Calm Calm - N/A   Unknown
6:00 PM 73.4 °F - 59.0 °F 61% 29.92 in 5.0 mi Calm Calm - N/A   Unknown
7:00 PM 73.4 °F - 57.2 °F 57% 29.92 in 5.0 mi Calm Calm - N/A   Unknown
8:00 PM 72 °F - 56 °F 48% 29.93 in 4 mi NE 2.3 mph - -   Haze
8:00 PM 71.6 °F - 57.2 °F 60% 29.92 in 3.7 mi NE 2.3 mph - N/A   Unknown
8:30 PM 71.6 °F - 57.2 °F 60% 29.92 in 3.7 mi NE 2.3 mph - N/A   Unknown
9:00 PM 69.8 °F - 55.4 °F 60% 29.95 in 3.7 mi Calm Calm - N/A   Unknown
10:00 PM 66.2 °F - 51.8 °F 60% 29.95 in - SSE 4.6 mph - N/A   Clear
11:00 PM 66 °F - 53 °F 53% 29.94 in 6 mi Calm Calm - -  
11:00 PM 66.2 °F - 53.6 °F 64% 29.92 in - Calm Calm - N/A   Clear